East Freehold, New Jersey
Current Conditions -  °F | °C
As of 11:15 AM on Thursday 27 Nov 2014 (Local Time) from KBLM Reporting Station
Overcast Overcast  
Wind Chill: 32°   Ceiling: 1100
Heat Index: 37°   Visibility: 10mi
Dew Point: 28°   Wind: 7mph
Humidity: 70%   Direction: 290°WNW
Pressure: 30"   Gusts: NA
Location:  40.2229°N, 74.3007°W
Report Text: KBLM 271615Z AUTO 29006KT 10SM BKN011 OVC025 03/M02 A3000 RMK AO1
Loading
Personal Weather Stations






























Interactive Weather Map New forecast layout! Learn more

10-Day Weather Forecast

Advertisements
Track Severe Weather on mobile